Home > Weather > Apeldoorn > Past weeks

Flag for Netherlands Past Weather in Apeldoorn, Netherlands — Yesterday and Last 2 Weeks

Now
59 °F

Overcast.


Feels Like: 57 °F
Forecast: 49 / 64 °F
Wind: 12 mph from Southwest

Location: Deelen

Current Time: Jun 27, 2016 at 11:36:07 AM

Latest Report: Jun 27, 2016 at 10:55 AM


Visibility: N/A

Pressure: 30.01 "Hg

Humidity: 88%

Dew Point: 55 °F

Location of ApeldoornLocation

Past Weather in Apeldoorn — Graph

°F

Apeldoorn Temperature Yesterday

Maximum temperature yesterday: 66 °F (at 4:25 PM)
Minimum temperature yesterday: 50 °F (at 3:25 AM)
Average temperature yesterday: 57 °F

High & Low Weather Summary for the Past Weeks

 TemperatureHumidityPressure
High86 °F (Jun 23, 5:25 PM)100% (Jun 12, 9:55 PM)30.24 "Hg (Jun 12, 9:55 PM)
Low50 °F (Jun 16, 5:55 AM)46% (Jun 16, 1:55 PM)29.45 "Hg (Jun 14, 4:55 PM)
Average62 °F85%29.88 "Hg
* Reported Jun 12 10:25 AM — Jun 27 10:25 AM, Apeldoorn, Weather by CustomWeather, © 2016

Note: Actual official high and low records may vary slightly from our data, if they occured in-between our weather recording intervals... More about our weather records

Advertising

Apeldoorn Weather History for the Previous 24 Hours

Scroll right to see more
 ConditionsComfort  
Time TempWeatherWind HumidityBarometerVisibility
10:25 AM
Mon, Jun 27
59 °FOvercast.12 mph82%30.01 "HgN/A
9:55 AM59 °FOvercast.10 mph82%30.01 "HgN/A
9:25 AM59 °FMostly cloudy.12 mph82%30.01 "HgN/A
8:55 AM57 °FMore clouds than sun.12 mph88%30.01 "HgN/A
8:25 AM57 °FLow clouds.12 mph88%30.01 "HgN/A
7:55 AM57 °FFog.10 mph88%30.01 "Hg5 mi
7:25 AM55 °FFog.10 mph94%30.01 "Hg5 mi
6:55 AM55 °FFog.9 mph94%30.01 "Hg6 mi
6:25 AM55 °FLow clouds.8 mph94%30.01 "HgN/A
5:55 AM55 °FOvercast.9 mph94%30.01 "HgN/A
5:25 AM55 °FMostly cloudy.9 mph88%30.01 "HgN/A
4:55 AM55 °FMostly cloudy.8 mph88%30.01 "HgN/A
4:25 AM55 °FPassing clouds.8 mph94%30.04 "HgN/A
3:55 AM55 °FFog.7 mph94%30.04 "Hg6 mi
3:25 AM55 °FFog.7 mph94%30.04 "Hg5 mi
2:55 AM55 °FFog.7 mph94%30.04 "Hg5 mi
2:25 AM55 °FFog.7 mph94%30.04 "Hg4 mi
1:55 AM55 °FFog.6 mph94%30.04 "Hg5 mi
1:25 AM54 °FPassing clouds.6 mph94%30.04 "HgN/A
12:55 AM54 °FPassing clouds.5 mph94%30.04 "HgN/A
12:25 AM54 °FPassing clouds.3 mph94%30.04 "HgN/A
11:55 PM
Sun, Jun 26
54 °FPassing clouds.3 mph94%30.04 "HgN/A
11:25 PM55 °FPassing clouds.3 mph88%30.04 "HgN/A
10:55 PM54 °FPassing clouds.6 mph94%30.04 "HgN/A
10:25 PM55 °FPassing clouds.5 mph88%30.04 "HgN/A
9:55 PM57 °FPassing clouds.5 mph82%30.04 "HgN/A
9:25 PM59 °FPassing clouds.8 mph82%30.04 "HgN/A
8:55 PM59 °FPassing clouds.6 mph82%30.01 "HgN/A
8:25 PM61 °FMostly cloudy.8 mph77%30.01 "HgN/A
7:55 PM61 °FPassing clouds.9 mph72%30.01 "HgN/A
7:25 PM64 °FPassing clouds.10 mph68%30.01 "HgN/A
6:55 PM63 °FPartly sunny.10 mph73%30.01 "HgN/A
6:25 PM64 °FScattered clouds.13 mph68%30.01 "HgN/A
5:55 PM64 °FPassing clouds.9 mph68%30.01 "HgN/A
5:25 PM64 °FPassing clouds.12 mph68%30.01 "HgN/A
4:55 PM64 °FBroken clouds.10 mph68%30.01 "HgN/A
4:25 PM66 °FBroken clouds.12 mph64%30.01 "HgN/A
3:55 PM64 °FScattered clouds.10 mph68%30.01 "HgN/A
3:25 PM59 °FSprinkles. Broken clouds.8 mph88%30.01 "HgN/A
2:55 PM63 °FPassing clouds.10 mph83%30.01 "HgN/A
2:25 PM61 °FPassing clouds.8 mph88%30.01 "HgN/A
1:55 PM57 °FDrizzle. Broken clouds.8 mph94%30.04 "HgN/A
1:25 PM57 °FScattered clouds.8 mph88%30.01 "HgN/A
12:55 PM54 °FThunderstorms. Broken clouds.5 mph94%30.04 "HgN/A
12:25 PM54 °FThunderstorms. Broken clouds.9 mph88%30.04 "HgN/A
11:55 AM63 °FThunderstorms. Partly sunny.9 mph73%30.01 "HgN/A
11:25 AM63 °FBroken clouds.13 mph73%30.01 "HgN/A
Weather by CustomWeather, © 2016

See weather overviewHow to use our weather pages